| time (UTC) | temp F | wind direction | speed MPH | gust MPH | rain 1hr in | rain 24hr in | rain mn in | humidity % | barometer mb |
| 20260505064503 | 60 | 132 | 2.0 | 4.0 | 0.00 | 0.00 | 0.00 | 74 | 1013.8 |
| 20260505064003 | 59 | 129 | 2.0 | 4.0 | 0.00 | 0.00 | 0.00 | 74 | 1013.4 |
| 20260505063503 | 59 | 129 | 2.0 | 4.0 | 0.00 | 0.00 | 0.00 | 74 | 1013.4 |
| 20260505063003 | 59 | 136 | 2.0 | 4.0 | 0.00 | 0.00 | 0.00 | 74 | 1013.5 |
| 20260505062503 | 59 | 135 | 2.0 | 4.0 | 0.00 | 0.00 | 0.00 | 74 | 1013.4 |
| 20260505062003 | 59 | 134 | 2.0 | 5.0 | 0.00 | 0.00 | 0.00 | 74 | 1013.5 |
| 20260505061503 | 59 | 138 | 3.0 | 7.0 | 0.00 | 0.00 | 0.00 | 74 | 1013.4 |
| 20260505061003 | 58 | 139 | 3.0 | 7.0 | 0.00 | 0.00 | 0.00 | 75 | 1013.5 |
| 20260505060503 | 58 | 139 | 3.0 | 6.0 | 0.00 | 0.00 | 0.00 | 75 | 1013.6 |
| 20260505060003 | 58 | 138 | 3.0 | 6.0 | 0.00 | 0.00 | 0.00 | 74 | 1013.3 |
| 20260505055503 | 58 | 137 | 3.0 | 6.0 | 0.00 | 0.00 | 0.00 | 74 | 1013.6 |
| 20260505055003 | 58 | 135 | 3.0 | 5.0 | 0.00 | 0.00 | 0.00 | 74 | 1013.3 |
| 20260505054503 | 58 | 134 | 3.0 | 5.0 | 0.00 | 0.00 | 0.00 | 72 | 1013.2 |
| 20260505054003 | 58 | 131 | 1.0 | 4.0 | 0.00 | 0.00 | 0.00 | 72 | 1013.1 |
| 20260505053503 | 58 | 121 | 1.0 | 3.0 | 0.00 | 0.00 | 0.00 | 72 | 1013.0 |
| 20260505053003 | 58 | 132 | 2.0 | 5.0 | 0.00 | 0.00 | 0.00 | 72 | 1013.0 |
| 20260505052503 | 58 | 143 | 2.0 | 5.0 | 0.00 | 0.00 | 0.00 | 72 | 1013.0 |
| 20260505052003 | 58 | 140 | 1.0 | 4.0 | 0.00 | 0.00 | 0.00 | 71 | 1013.2 |
| 20260505051503 | 58 | 83 | 1.0 | 3.0 | 0.00 | 0.00 | 0.00 | 71 | 1012.9 |
| 20260505051003 | 58 | 72 | 1.0 | 3.0 | 0.00 | 0.00 | 0.00 | 71 | 1012.9 |
| 20260505050503 | 58 | 125 | 1.0 | 3.0 | 0.00 | 0.00 | 0.00 | 72 | 1013.0 |
| 20260505041503 | 58 | 43 | 1.0 | 2.0 | 0.00 | 0.00 | 0.00 | 74 | 1012.9 |
| 20260505041003 | 58 | 30 | 1.0 | 2.0 | 0.00 | 0.00 | 0.00 | 74 | 1013.1 |
| 20260505040503 | 58 | 177 | 1.0 | 3.0 | 0.00 | 0.00 | 0.00 | 74 | 1012.8 |
| 20260505040004 | 58 | 104 | 1.0 | 3.0 | 0.00 | 0.00 | 0.00 | 74 | 1012.8 |
| 20260505035503 | 57 | 16 | 1.0 | 2.0 | 0.00 | 0.00 | 0.00 | 72 | 1012.8 |
| 20260505035003 | 57 | 360 | 1.0 | 2.0 | 0.00 | 0.00 | 0.00 | 72 | 1012.9 |
| 20260505034503 | 57 | 337 | 1.0 | 2.0 | 0.00 | 0.00 | 0.00 | 72 | 1012.8 |
| 20260505034003 | 57 | 337 | 1.0 | 3.0 | 0.00 | 0.00 | 0.00 | 72 | 1012.7 |
| 20260505033503 | 57 | 295 | 0.0 | 3.0 | 0.00 | 0.00 | 0.00 | 72 | 1013.1 |
| 20260505033003 | 57 | 247 | 0.0 | 2.0 | 0.00 | 0.00 | 0.00 | 72 | 1012.9 |
| 20260505032503 | 57 | 32 | 1.0 | 3.0 | 0.00 | 0.00 | 0.00 | 72 | 1012.9 |
| 20260505032003 | 57 | 26 | 2.0 | 4.0 | 0.00 | 0.00 | 0.00 | 72 | 1012.8 |
| 20260505031503 | 57 | 13 | 2.0 | 4.0 | 0.00 | 0.00 | 0.00 | 72 | 1012.6 |
| 20260505031003 | 57 | 7 | 2.0 | 4.0 | 0.00 | 0.00 | 0.00 | 72 | 1012.6 |
| 20260505030003 | 57 | 2 | 1.0 | 3.0 | 0.00 | 0.00 | 0.00 | 72 | 1012.9 |
| 20260505025503 | 57 | 360 | 1.0 | 3.0 | 0.00 | 0.00 | 0.00 | 72 | 1012.9 |
| 20260505025003 | 57 | 357 | 1.0 | 2.0 | 0.00 | 0.00 | 0.00 | 72 | 1012.9 |
| 20260505024503 | 57 | 346 | 1.0 | 2.0 | 0.00 | 0.00 | 0.00 | 72 | 1013.0 |
| 20260505024003 | 57 | 323 | 1.0 | 2.0 | 0.00 | 0.00 | 0.00 | 72 | 1013.1 |
| 20260505023503 | 57 | 10 | 1.0 | 3.0 | 0.00 | 0.00 | 0.00 | 72 | 1013.0 |
| 20260505023003 | 57 | 3 | 2.0 | 4.0 | 0.00 | 0.00 | 0.00 | 72 | 1013.0 |
| 20260505022503 | 57 | 354 | 2.0 | 4.0 | 0.00 | 0.00 | 0.00 | 72 | 1013.0 |
| 20260505022003 | 57 | 352 | 2.0 | 4.0 | 0.00 | 0.00 | 0.00 | 72 | 1013.0 |
| 20260505021503 | 57 | 9 | 2.0 | 3.0 | 0.00 | 0.00 | 0.00 | 72 | 1013.2 |
| 20260505021003 | 57 | 21 | 1.0 | 3.0 | 0.00 | 0.00 | 0.00 | 72 | 1013.2 |
| 20260505020503 | 57 | 23 | 2.0 | 3.0 | 0.00 | 0.00 | 0.00 | 72 | 1013.2 |
| 20260505020003 | 57 | 14 | 2.0 | 4.0 | 0.00 | 0.00 | 0.00 | 72 | 1013.2 |
| 20260505015503 | 57 | 4 | 2.0 | 4.0 | 0.00 | 0.00 | 0.00 | 72 | 1013.4 |
| 20260505015003 | 57 | 4 | 2.0 | 4.0 | 0.00 | 0.00 | 0.00 | 72 | 1013.3 |
| 20260505014503 | 57 | 359 | 2.0 | 4.0 | 0.00 | 0.00 | 0.00 | 72 | 1013.3 |
| 20260505014004 | 57 | 3 | 2.0 | 3.0 | 0.00 | 0.00 | 0.00 | 72 | 1013.5 |
| 20260505013503 | 57 | 359 | 2.0 | 3.0 | 0.00 | 0.00 | 0.00 | 72 | 1013.6 |
| 20260505013003 | 56 | 26 | 2.0 | 4.0 | 0.00 | 0.00 | 0.00 | 72 | 1013.4 |
| 20260505012503 | 56 | 124 | 3.0 | 6.0 | 0.00 | 0.00 | 0.00 | 72 | 1013.4 |
| 20260505012003 | 56 | 135 | 4.0 | 6.0 | 0.00 | 0.00 | 0.00 | 72 | 1013.7 |
| 20260505011503 | 56 | 135 | 4.0 | 6.0 | 0.00 | 0.00 | 0.00 | 72 | 1013.3 |
| 20260505011003 | 56 | 128 | 4.0 | 6.0 | 0.00 | 0.00 | 0.00 | 72 | 1013.6 |
| 20260505010503 | 57 | 118 | 4.0 | 6.0 | 0.00 | 0.00 | 0.00 | 69 | 1013.7 |
| 20260505010004 | 57 | 118 | 4.0 | 5.0 | 0.00 | 0.00 | 0.00 | 69 | 1013.7 |
| 20260505005503 | 57 | 133 | 3.0 | 5.0 | 0.00 | 0.00 | 0.00 | 69 | 1013.8 |
| 20260505005004 | 57 | 141 | 3.0 | 5.0 | 0.00 | 0.00 | 0.00 | 69 | 1013.8 |
| 20260505004503 | 57 | 131 | 3.0 | 5.0 | 0.00 | 0.00 | 0.00 | 69 | 1014.0 |
| 20260505004003 | 57 | 132 | 3.0 | 5.0 | 0.00 | 0.00 | 0.00 | 69 | 1014.0 |
| 20260505003503 | 57 | 142 | 1.0 | 3.0 | 0.00 | 0.00 | 0.00 | 69 | 1014.3 |
| 20260505003003 | 56 | 128 | 1.0 | 2.0 | 0.00 | 0.00 | 0.00 | 69 | 1014.0 |
| 20260505002503 | 56 | 97 | 1.0 | 3.0 | 0.00 | 0.00 | 0.00 | 69 | 1014.2 |
| 20260505002003 | 56 | 112 | 1.0 | 4.0 | 0.00 | 0.00 | 0.00 | 69 | 1014.5 |
| 20260505001503 | 56 | 132 | 1.0 | 4.0 | 0.00 | 0.00 | 0.00 | 69 | 1014.5 |
| 20260505001003 | 56 | 129 | 1.0 | 4.0 | 0.00 | 0.00 | 0.00 | 69 | 1014.7 |
| 20260505000503 | 56 | 132 | 1.0 | 3.0 | 0.00 | 0.00 | 0.00 | 69 | 1014.6 |
| 20260505000003 | 56 | 105 | 1.0 | 4.0 | 0.00 | 0.00 | 0.00 | 69 | 1014.5 |
| 20260504235503 | 56 | 119 | 2.0 | 4.0 | 0.00 | 0.00 | 0.00 | 69 | 1014.6 |
| 20260504235003 | 56 | 132 | 2.0 | 4.0 | 0.00 | 0.00 | 0.00 | 69 | 1014.7 |
| 20260504234503 | 56 | 124 | 3.0 | 5.0 | 0.00 | 0.00 | 0.00 | 69 | 1014.9 |
| 20260504234003 | 56 | 129 | 3.0 | 5.0 | 0.00 | 0.00 | 0.00 | 69 | 1014.7 |
| 20260504233503 | 57 | 140 | 2.0 | 5.0 | 0.00 | 0.00 | 0.00 | 69 | 1014.9 |
| 20260504233003 | 57 | 139 | 2.0 | 4.0 | 0.00 | 0.00 | 0.00 | 69 | 1015.0 |
| 20260504232503 | 57 | 89 | 2.0 | 4.0 | 0.00 | 0.00 | 0.00 | 69 | 1014.8 |
| 20260504232003 | 57 | 38 | 2.0 | 4.0 | 0.00 | 0.00 | 0.00 | 69 | 1014.9 |
| 20260504231503 | 57 | 53 | 1.0 | 3.0 | 0.00 | 0.00 | 0.00 | 69 | 1015.1 |
| 20260504231003 | 57 | 70 | 1.0 | 4.0 | 0.00 | 0.00 | 0.00 | 69 | 1015.0 |
| 20260504230503 | 57 | 144 | 1.0 | 4.0 | 0.00 | 0.00 | 0.00 | 69 | 1015.0 |
| 20260504230003 | 57 | 307 | 1.0 | 4.0 | 0.00 | 0.00 | 0.00 | 69 | 1014.9 |
| 20260504225503 | 57 | 193 | 1.0 | 4.0 | 0.00 | 0.00 | 0.00 | 69 | 1015.1 |
| 20260504225003 | 57 | 146 | 1.0 | 2.0 | 0.00 | 0.00 | 0.00 | 69 | 1015.1 |
| 20260504224503 | 57 | 135 | 1.0 | 2.0 | 0.00 | 0.00 | 0.00 | 68 | 1015.0 |
| 20260504224003 | 58 | 25 | 2.0 | 4.0 | 0.00 | 0.00 | 0.00 | 67 | 1015.2 |
| 20260504223503 | 58 | 13 | 3.0 | 4.0 | 0.00 | 0.00 | 0.00 | 67 | 1015.1 |
| 20260504223003 | 58 | 7 | 2.0 | 4.0 | 0.00 | 0.00 | 0.00 | 67 | 1014.9 |
| 20260504222503 | 58 | 343 | 1.0 | 3.0 | 0.00 | 0.00 | 0.00 | 67 | 1015.2 |
| 20260504222003 | 58 | 262 | 1.0 | 3.0 | 0.00 | 0.00 | 0.00 | 67 | 1015.2 |
| 20260504221503 | 58 | 205 | 2.0 | 4.0 | 0.00 | 0.00 | 0.00 | 67 | 1015.3 |
| 20260504221003 | 58 | 175 | 3.0 | 4.0 | 0.00 | 0.00 | 0.00 | 67 | 1015.1 |
| 20260504220503 | 58 | 171 | 3.0 | 6.0 | 0.00 | 0.00 | 0.00 | 67 | 1015.1 |
| 20260504220003 | 58 | 173 | 3.0 | 6.0 | 0.00 | 0.00 | 0.00 | 67 | 1015.2 |
| 20260504215503 | 58 | 171 | 3.0 | 4.0 | 0.00 | 0.00 | 0.00 | 67 | 1015.0 |
| 20260504215003 | 58 | 171 | 3.0 | 4.0 | 0.00 | 0.00 | 0.00 | 67 | 1015.1 |
| 20260504214503 | 59 | 168 | 3.0 | 4.0 | 0.00 | 0.00 | 0.00 | 66 | 1015.2 |
| 20260504214003 | 59 | 165 | 2.0 | 4.0 | 0.00 | 0.00 | 0.00 | 66 | 1015.4 |
| 20260504213503 | 60 | 174 | 2.0 | 3.0 | 0.00 | 0.00 | 0.00 | 64 | 1015.2 |
| 20260504213003 | 60 | 195 | 1.0 | 2.0 | 0.00 | 0.00 | 0.00 | 64 | 1015.2 |
| 20260504212503 | 60 | 222 | 1.0 | 2.0 | 0.00 | 0.00 | 0.00 | 64 | 1015.4 |
| 20260504212003 | 60 | 227 | 1.0 | 2.0 | 0.00 | 0.00 | 0.00 | 64 | 1015.3 |
| 20260504211503 | 60 | 205 | 1.0 | 2.0 | 0.00 | 0.00 | 0.00 | 64 | 1015.4 |
| 20260504211003 | 60 | 192 | 1.0 | 2.0 | 0.00 | 0.00 | 0.00 | 64 | 1015.5 |
| 20260504210503 | 61 | 181 | 2.0 | 3.0 | 0.00 | 0.00 | 0.00 | 63 | 1015.4 |
| 20260504210003 | 61 | 177 | 2.0 | 3.0 | 0.00 | 0.00 | 0.00 | 63 | 1015.5 |
| 20260504205503 | 64 | 188 | 2.0 | 3.0 | 0.00 | 0.00 | 0.00 | 59 | 1015.5 |
| 20260504205003 | 64 | 205 | 1.0 | 3.0 | 0.00 | 0.00 | 0.00 | 59 | 1015.4 |
| 20260504204503 | 64 | 220 | 1.0 | 2.0 | 0.00 | 0.00 | 0.00 | 59 | 1015.3 |
| 20260504204003 | 64 | 199 | 0.0 | 2.0 | 0.00 | 0.00 | 0.00 | 59 | 1015.3 |
| 20260504203503 | 64 | 199 | 1.0 | 2.0 | 0.00 | 0.00 | 0.00 | 59 | 1015.5 |
| 20260504203003 | 64 | 178 | 1.0 | 4.0 | 0.00 | 0.00 | 0.00 | 59 | 1015.3 |
| 20260504202503 | 64 | 169 | 2.0 | 4.0 | 0.00 | 0.00 | 0.00 | 59 | 1015.6 |
| 20260504202003 | 64 | 170 | 2.0 | 4.0 | 0.00 | 0.00 | 0.00 | 59 | 1015.3 |
| 20260504201503 | 64 | 177 | 2.0 | 4.0 | 0.00 | 0.00 | 0.00 | 59 | 1015.2 |
| 20260504201003 | 64 | 190 | 2.0 | 4.0 | 0.00 | 0.00 | 0.00 | 59 | 1015.3 |
| 20260504200503 | 64 | 190 | 1.0 | 4.0 | 0.00 | 0.00 | 0.00 | 59 | 1015.3 |
| 20260504200003 | 64 | 29 | 1.0 | 3.0 | 0.00 | 0.00 | 0.00 | 59 | 1015.2 |
| 20260504195503 | 64 | 28 | 1.0 | 3.0 | 0.00 | 0.00 | 0.00 | 59 | 1015.4 |
| 20260504195003 | 64 | 347 | 1.0 | 2.0 | 0.00 | 0.00 | 0.00 | 59 | 1015.1 |
| 20260504194503 | 64 | 182 | 1.0 | 4.0 | 0.00 | 0.00 | 0.00 | 60 | 1015.1 |
| 20260504194003 | 64 | 163 | 2.0 | 5.0 | 0.00 | 0.00 | 0.00 | 60 | 1015.1 |
| 20260504193503 | 64 | 160 | 3.0 | 6.0 | 0.00 | 0.00 | 0.00 | 60 | 1015.2 |
| 20260504193003 | 64 | 157 | 3.0 | 6.0 | 0.00 | 0.00 | 0.00 | 60 | 1015.1 |
| 20260504192503 | 64 | 145 | 3.0 | 6.0 | 0.00 | 0.00 | 0.00 | 60 | 1015.2 |
| 20260504192003 | 64 | 133 | 3.0 | 6.0 | 0.00 | 0.00 | 0.00 | 60 | 1015.1 |
| 20260504191503 | 64 | 132 | 3.0 | 7.0 | 0.00 | 0.00 | 0.00 | 59 | 1015.1 |
| 20260504191003 | 65 | 134 | 3.0 | 7.0 | 0.00 | 0.00 | 0.00 | 59 | 1015.1 |
| 20260504190504 | 65 | 137 | 3.0 | 5.0 | 0.00 | 0.00 | 0.00 | 57 | 1015.0 |
| 20260504190003 | 65 | 143 | 3.0 | 6.0 | 0.00 | 0.00 | 0.00 | 57 | 1014.9 |
| 20260504185503 | 66 | 144 | 4.0 | 8.0 | 0.00 | 0.00 | 0.00 | 56 | 1015.0 |
| 20260504185003 | 66 | 148 | 4.0 | 8.0 | 0.00 | 0.00 | 0.00 | 56 | 1014.8 |
| 20260504184503 | 67 | 155 | 3.0 | 6.0 | 0.00 | 0.00 | 0.00 | 55 | 1014.9 |
| 20260504184003 | 67 | 153 | 4.0 | 8.0 | 0.00 | 0.00 | 0.00 | 55 | 1014.8 |
| 20260504183503 | 67 | 155 | 5.0 | 11.0 | 0.00 | 0.00 | 0.00 | 54 | 1015.0 |
| 20260504183003 | 67 | 158 | 5.0 | 11.0 | 0.00 | 0.00 | 0.00 | 54 | 1014.9 |
| 20260504182503 | 67 | 156 | 5.0 | 10.0 | 0.00 | 0.00 | 0.00 | 53 | 1014.7 |
| 20260504182003 | 68 | 156 | 5.0 | 12.0 | 0.00 | 0.00 | 0.00 | 53 | 1014.8 |
| 20260504181503 | 68 | 153 | 5.0 | 12.0 | 0.00 | 0.00 | 0.00 | 52 | 1014.7 |
| 20260504181003 | 69 | 153 | 5.0 | 12.0 | 0.00 | 0.00 | 0.00 | 51 | 1014.7 |
| 20260504180503 | 69 | 153 | 6.0 | 14.0 | 0.00 | 0.00 | 0.00 | 50 | 1014.9 |
| 20260504180003 | 69 | 151 | 7.0 | 16.0 | 0.00 | 0.00 | 0.00 | 50 | 1014.8 |
| 20260504175503 | 70 | 149 | 8.0 | 16.0 | 0.00 | 0.00 | 0.00 | 49 | 1014.7 |
| 20260504175003 | 70 | 152 | 8.0 | 16.0 | 0.00 | 0.00 | 0.00 | 48 | 1014.7 |
| 20260504174503 | 71 | 151 | 9.0 | 18.0 | 0.00 | 0.00 | 0.00 | 47 | 1014.4 |
| 20260504174003 | 71 | 145 | 9.0 | 18.0 | 0.00 | 0.00 | 0.00 | 47 | 1014.6 |
| 20260504173503 | 72 | 144 | 8.0 | 17.0 | 0.00 | 0.00 | 0.00 | 47 | 1014.5 |
| 20260504173003 | 72 | 143 | 8.0 | 17.0 | 0.00 | 0.00 | 0.00 | 46 | 1014.6 |
| 20260504172503 | 73 | 140 | 9.0 | 17.0 | 0.00 | 0.00 | 0.00 | 45 | 1014.5 |
| 20260504172003 | 74 | 147 | 8.0 | 17.0 | 0.00 | 0.00 | 0.00 | 44 | 1014.4 |
| 20260504171503 | 75 | 159 | 6.0 | 14.0 | 0.00 | 0.00 | 0.00 | 44 | 1014.2 |
| 20260504171003 | 75 | 163 | 5.0 | 13.0 | 0.00 | 0.00 | 0.00 | 36 | 1014.4 |
| 20260504170503 | 75 | 162 | 4.0 | 7.0 | 0.00 | 0.00 | 0.00 | 35 | 1014.0 |
| 20260504151003 | 80 | 145 | 5.0 | 9.0 | 0.00 | 0.00 | 0.00 | 35 | 1014.4 |
| 20260504150503 | 80 | 148 | 5.0 | 10.0 | 0.00 | 0.00 | 0.00 | 37 | 1014.5 |
| 20260504141003 | 79 | 149 | 6.0 | 11.0 | 0.00 | 0.00 | 0.00 | 39 | 1014.9 |
| 20260504140503 | 80 | 145 | 6.0 | 11.0 | 0.00 | 0.00 | 0.00 | 38 | 1014.8 |
| 20260504130503 | 80 | 172 | 4.0 | 12.0 | 0.00 | 0.00 | 0.00 | 40 | 1015.5 |
| 20260504110503 | 78 | 119 | 3.0 | 6.0 | 0.00 | 0.00 | 0.00 | 47 | 1016.3 |
| 20260504100503 | 74 | 189 | 3.0 | 9.0 | 0.00 | 0.00 | 0.00 | 53 | 1017.1 |
| 20260504082003 | 71 | 344 | 3.0 | 6.0 | 0.00 | 0.00 | 0.00 | 55 | 1017.4 |
| 20260504081503 | 70 | 352 | 3.0 | 8.0 | 0.00 | 0.00 | 0.00 | 56 | 1017.4 |
| 20260504081003 | 70 | 12 | 4.0 | 8.0 | 0.00 | 0.00 | 0.00 | 56 | 1017.3 |
| 20260504080503 | 70 | 359 | 4.0 | 7.0 | 0.00 | 0.00 | 0.00 | 56 | 1017.1 |